Showing default

NORSAT 4, 62702

Orbit data source: Space-Track

NORSAT 4, 62702 is a payload satellite owned by NSC (NO) in SSO that was launched on Tue, 14 Jan 2025 UTC via an FALCON 9 launch vehicle from the Air Force Western Test Range (AFWTR). Payload-class satellites include a variety of spacecraft equipped with specific instruments for various scientific and technological missions. These include communications satellites like Starlink; space stations such as the ISS; scientific satellites like the Hubble; Earth observation satellites from companies like Planet Labs, Umbra, and HawkEye 360; GPS; miniature CubeSats for education and research; and military/defense satellites.

Loading next visibility...
Identifier
62702, 2025-009CX
Orbit
SSO
Country
Flag of NONO / NOR
Related business
Manufacturer
UTIAS-SFL
Mission
Operational Civil Com/Tech
Bus & Motor
DEFIANT, Unknown motor
Mass
35 kg wet, 35 kg dry
Launch date (UTC)
2025-01-14 (2 years ago)
Launch vehicle
FALCON 9
Launch site
Air Force Western Test Range (AFWTR)
Object type
Payload
Rocket body
Debris
Shape & HBR
Box, 0.3 m
Radar Cross Section
0.165 m², Medium (>0.1 m² and < 1m²)

Expand to show TLE details & history
Last TLE update: 17 hours ago

TLE from 17 hours ago
0 NORSAT 4
1 62702U 25009CX  26255.64716964  .00001370  00000-0  12945-3 0  9991
2 62702  97.6992 332.8109 0003211  98.3244 261.8341 14.95305290 90433
Epoch: 2026-09-12T15:31Z
TLE epoch observation values (Epoch: 2026-09-12T15:31:55.456Z)
Latitude
-0.00005°
Longitude
108.17667°
Altitude
584.792 km
Speed
7.568 km/s
True Right ascension
22h 11m 14s
True Declination
0° 00' 00"
Sunlit
Object was in full shadow at epoch
Visualization orbit readout
Latitude
Unknown
Longitude
Unknown
Altitude
Unknown
Speed
Unknown
Apparent Right ascension
Unknown
Apparent Declination
Unknown
Sunlit
N/A
Visualization observer readout
Local Sidereal Time
01:09:00
Azimuth
Unknown
Elevation
Unknown
Doppler factor
Unknown
Orbital elements
Apogee altitude
580.671 km
Perigee altitude
576.203 km
Semi-major axis
6,956.574 km
Eccentricity
0.00032
Inclination
97.6992°
RAAN
332.8109°
Arg. of periapsis
98.3244°
True anomaly
261.79768°
Mean anomaly
261.8341°
Eccentric anomaly
261.81589°
Mean motion
3.74068 °/min
Orbital period
96.24 mins
BSTAR
0.00012945
Loading maneuver chart data...
Computing Atmospheric mass density...
Loading historical data...
Loading historical data...
Loading historical data...
Loading historical data...
Loading historical data...
Loading historical data...
Loading historical data...

Documentation

Showing up to 5 results
|